Time,TemperatureF,DewpointF,PressureIn,WindDirection,WindDirectionDegrees,WindSpeedMPH,WindSpeedGustMPH,Humidity,HourlyPrecipIn,Conditions,Clouds,dailyrainin,SoftwareType,DateUTC
2013-04-04 00:00:00,32.5,34.9,30.18,WNW,288,0.0,5.0,54,0.00,,,0.00,meteohub,2013-04-04 04:00:00,
2013-04-04 00:05:00,32.4,34.7,30.18,WNW,288,0.0,5.0,55,0.00,,,0.00,meteohub,2013-04-04 04:05:00,
2013-04-04 00:10:00,32.4,34.7,30.19,NNW,327,1.0,4.0,54,0.00,,,0.00,meteohub,2013-04-04 04:10:00,
2013-04-04 00:15:00,32.4,34.7,30.19,NW,325,0.0,5.0,55,0.00,,,0.00,meteohub,2013-04-04 04:15:00,
2013-04-04 00:20:00,32.2,34.7,30.19,NW,324,0.0,5.0,54,0.00,,,0.00,meteohub,2013-04-04 04:20:00,
2013-04-04 00:25:00,32.2,34.5,30.19,NW,314,2.0,6.0,55,0.00,,,0.00,meteohub,2013-04-04 04:25:00,
2013-04-04 00:30:00,32.0,34.5,30.20,NW,314,2.0,6.0,55,0.00,,,0.00,meteohub,2013-04-04 04:30:00,
2013-04-04 00:35:00,32.0,34.5,30.19,NW,314,0.0,6.0,55,0.00,,,0.00,meteohub,2013-04-04 04:35:00,
2013-04-04 00:40:00,31.8,34.5,30.19,NW,317,0.0,5.0,55,0.00,,,0.00,meteohub,2013-04-04 04:40:00,
2013-04-04 00:45:00,31.8,34.5,30.19,NW,317,0.0,5.0,55,0.00,,,0.00,meteohub,2013-04-04 04:45:00,
2013-04-04 00:51:00,31.8,35.6,30.20,NW,315,0.0,5.0,55,0.00,,,0.00,meteohub,2013-04-04 04:51:00,
2013-04-04 00:56:00,31.8,35.6,30.20,NW,314,0.0,6.0,56,0.00,,,0.00,meteohub,2013-04-04 04:56:00,
2013-04-04 01:01:00,31.6,35.6,30.19,WNW,303,4.0,6.0,55,0.00,,,0.00,meteohub,2013-04-04 05:01:00,
2013-04-04 01:06:00,31.8,35.6,30.20,NW,321,0.0,9.0,55,0.00,,,0.00,meteohub,2013-04-04 05:06:00,
2013-04-04 01:11:00,31.8,35.6,30.20,NW,309,1.0,9.0,55,0.00,,,0.00,meteohub,2013-04-04 05:11:00,
2013-04-04 01:16:00,32.0,35.6,30.20,NNW,329,2.0,9.0,55,0.00,,,0.00,meteohub,2013-04-04 05:16:00,
2013-04-04 01:21:00,32.0,35.6,30.20,WNW,287,0.0,5.0,55,0.00,,,0.00,meteohub,2013-04-04 05:21:00,
2013-04-04 01:26:00,31.8,35.6,30.20,WNW,287,1.0,5.0,55,0.00,,,0.00,meteohub,2013-04-04 05:26:00,
2013-04-04 01:31:00,31.8,35.6,30.20,WNW,287,0.0,5.0,55,0.00,,,0.00,meteohub,2013-04-04 05:31:00,
2013-04-04 01:36:00,31.6,35.6,30.21,WNW,290,2.0,4.0,55,0.00,,,0.00,meteohub,2013-04-04 05:36:00,
2013-04-04 01:41:00,31.6,35.6,30.21,WNW,294,1.0,4.0,55,0.00,,,0.00,meteohub,2013-04-04 05:41:00,
2013-04-04 01:46:00,31.6,35.2,30.21,NNW,333,5.0,5.0,55,0.00,,,0.00,meteohub,2013-04-04 05:46:00,
2013-04-04 01:51:00,31.8,35.6,30.21,NW,318,1.0,9.0,55,0.00,,,0.00,meteohub,2013-04-04 05:51:00,
2013-04-04 01:56:00,31.8,35.6,30.21,WNW,294,0.0,9.0,55,0.00,,,0.00,meteohub,2013-04-04 05:56:00,
2013-04-04 02:01:00,31.8,35.6,30.21,NNW,336,5.0,9.0,55,0.00,,,0.00,meteohub,2013-04-04 06:01:00,
2013-04-04 02:06:00,31.8,35.6,30.21,North,349,1.0,7.0,55,0.00,,,0.00,meteohub,2013-04-04 06:06:00,
2013-04-04 02:11:00,32.0,35.6,30.21,NW,321,0.0,6.0,55,0.00,,,0.00,meteohub,2013-04-04 06:11:00,
2013-04-04 02:16:00,32.0,35.6,30.21,NW,307,5.0,7.0,55,0.00,,,0.00,meteohub,2013-04-04 06:16:00,
2013-04-04 02:21:00,32.0,35.6,30.22,NNW,337,0.0,7.0,56,0.00,,,0.00,meteohub,2013-04-04 06:21:00,
2013-04-04 02:26:00,31.8,35.2,30.21,ESE,106,2.0,7.0,56,0.00,,,0.00,meteohub,2013-04-04 06:26:00,
2013-04-04 02:31:00,31.8,35.2,30.22,NW,319,1.0,8.0,56,0.00,,,0.00,meteohub,2013-04-04 06:31:00,
2013-04-04 02:37:00,31.6,35.2,30.21,NNW,331,1.0,8.0,57,0.00,,,0.00,meteohub,2013-04-04 06:37:00,
2013-04-04 02:42:00,31.6,35.2,30.21,NNW,343,2.0,6.0,57,0.00,,,0.00,meteohub,2013-04-04 06:42:00,
2013-04-04 02:47:00,31.6,35.6,30.21,NNW,331,5.0,6.0,57,0.00,,,0.00,meteohub,2013-04-04 06:47:00,
2013-04-04 02:52:00,31.6,35.6,30.21,NW,325,4.0,6.0,57,0.00,,,0.00,meteohub,2013-04-04 06:52:00,
2013-04-04 02:57:00,31.6,35.6,30.21,NW,319,1.0,6.0,57,0.00,,,0.00,meteohub,2013-04-04 06:57:00,
2013-04-04 03:02:00,31.5,35.6,30.21,NNW,328,0.0,6.0,57,0.00,,,0.00,meteohub,2013-04-04 07:02:00,
2013-04-04 03:07:00,31.3,35.2,30.21,North,0,5.0,5.0,58,0.00,,,0.00,meteohub,2013-04-04 07:07:00,
2013-04-04 03:12:00,31.1,35.2,30.21,NNW,327,0.0,7.0,58,0.00,,,0.00,meteohub,2013-04-04 07:12:00,
2013-04-04 03:17:00,30.9,35.1,30.21,NW,322,1.0,7.0,58,0.00,,,0.00,meteohub,2013-04-04 07:17:00,
2013-04-04 03:22:00,30.9,35.1,30.21,NW,309,0.0,7.0,59,0.00,,,0.00,meteohub,2013-04-04 07:22:00,
2013-04-04 03:27:00,30.7,35.1,30.21,NW,309,0.0,5.0,59,0.00,,,0.00,meteohub,2013-04-04 07:27:00,
2013-04-04 03:32:00,30.6,35.1,30.21,NW,307,1.0,5.0,59,0.00,,,0.00,meteohub,2013-04-04 07:32:00,
2013-04-04 03:37:00,30.6,36.1,30.21,ENE,63,1.0,5.0,60,0.00,,,0.00,meteohub,2013-04-04 07:37:00,
2013-04-04 03:42:00,30.6,36.3,30.21,West,279,0.0,5.0,60,0.00,,,0.00,meteohub,2013-04-04 07:42:00,
2013-04-04 03:47:00,30.4,36.5,30.20,West,279,0.0,5.0,60,0.00,,,0.00,meteohub,2013-04-04 07:47:00,
2013-04-04 03:52:00,30.4,36.5,30.20,West,281,0.0,2.0,60,0.00,,,0.00,meteohub,2013-04-04 07:52:00,
2013-04-04 03:57:00,30.4,36.3,30.21,NW,325,0.0,3.0,60,0.00,,,0.00,meteohub,2013-04-04 07:57:00,
2013-04-04 04:02:00,30.2,36.3,30.20,NW,312,6.0,6.0,61,0.00,,,0.00,meteohub,2013-04-04 08:02:00,
2013-04-04 04:07:00,30.4,36.3,30.20,WNW,298,1.0,6.0,60,0.00,,,0.00,meteohub,2013-04-04 08:07:00,
2013-04-04 04:12:00,30.4,36.3,30.21,WNW,298,0.0,6.0,61,0.00,,,0.00,meteohub,2013-04-04 08:12:00,
2013-04-04 04:17:00,30.4,36.3,30.21,WNW,298,0.0,6.0,61,0.00,,,0.00,meteohub,2013-04-04 08:17:00,
2013-04-04 04:22:00,30.2,36.3,30.20,WNW,298,0.0,5.0,61,0.00,,,0.00,meteohub,2013-04-04 08:22:00,
2013-04-04 04:27:00,30.0,36.1,30.21,WNW,298,0.0,2.0,61,0.00,,,0.00,meteohub,2013-04-04 08:27:00,
2013-04-04 04:32:00,29.8,36.1,30.21,WNW,298,0.0,2.0,62,0.00,,,0.00,meteohub,2013-04-04 08:32:00,
2013-04-04 04:37:00,29.8,36.1,30.21,WNW,298,0.0,2.0,62,0.00,,,0.00,meteohub,2013-04-04 08:37:00,
2013-04-04 04:42:00,29.7,36.1,30.22,NNW,329,1.0,1.0,62,0.00,,,0.00,meteohub,2013-04-04 08:42:00,
2013-04-04 04:47:00,29.7,36.3,30.22,WNW,296,0.0,5.0,62,0.00,,,0.00,meteohub,2013-04-04 08:47:00,
2013-04-04 04:52:00,29.8,36.5,30.22,NW,313,2.0,5.0,62,0.00,,,0.00,meteohub,2013-04-04 08:52:00,
2013-04-04 04:58:00,29.8,36.5,30.22,NW,311,0.0,5.0,62,0.00,,,0.00,meteohub,2013-04-04 08:58:00,
2013-04-04 05:03:00,29.8,36.5,30.23,NNW,340,0.0,5.0,62,0.00,,,0.00,meteohub,2013-04-04 09:03:00,
2013-04-04 05:08:00,29.8,36.3,30.23,NNW,340,0.0,5.0,62,0.00,,,0.00,meteohub,2013-04-04 09:08:00,
2013-04-04 05:13:00,29.8,36.3,30.23,NNW,340,0.0,5.0,62,0.00,,,0.00,meteohub,2013-04-04 09:13:00,
2013-04-04 05:18:00,29.8,36.1,30.24,NNW,340,0.0,2.0,62,0.00,,,0.00,meteohub,2013-04-04 09:18:00,
2013-04-04 05:23:00,29.7,36.1,30.24,NNW,340,0.0,2.0,63,0.00,,,0.00,meteohub,2013-04-04 09:23:00,
2013-04-04 05:28:00,29.7,36.1,30.24,NNW,340,0.0,1.0,63,0.00,,,0.00,meteohub,2013-04-04 09:28:00,
2013-04-04 05:33:00,29.5,36.1,30.25,NNW,340,0.0,0.0,63,0.00,,,0.00,meteohub,2013-04-04 09:33:00,
2013-04-04 05:38:00,29.5,36.1,30.25,NNW,340,1.0,1.0,63,0.00,,,0.00,meteohub,2013-04-04 09:38:00,
2013-04-04 05:43:00,29.7,36.1,30.25,West,276,0.0,2.0,63,0.00,,,0.00,meteohub,2013-04-04 09:43:00,
2013-04-04 05:48:00,29.7,36.1,30.26,NNW,337,2.0,5.0,63,0.00,,,0.00,meteohub,2013-04-04 09:48:00,
2013-04-04 05:53:00,29.8,36.3,30.26,WNW,302,0.0,5.0,63,0.00,,,0.00,meteohub,2013-04-04 09:53:00,
2013-04-04 05:58:00,29.8,36.5,30.26,WNW,302,0.0,5.0,63,0.00,,,0.00,meteohub,2013-04-04 09:58:00,
2013-04-04 06:03:00,29.8,36.5,30.27,WNW,302,0.0,4.0,63,0.00,,,0.00,meteohub,2013-04-04 10:03:00,
2013-04-04 06:08:00,29.7,36.5,30.27,WNW,302,0.0,4.0,63,0.00,,,0.00,meteohub,2013-04-04 10:08:00,
2013-04-04 06:13:00,29.5,36.3,30.27,WNW,302,0.0,1.0,64,0.00,,,0.00,meteohub,2013-04-04 10:13:00,
2013-04-04 06:18:00,29.1,36.3,30.27,WNW,302,0.0,1.0,64,0.00,,,0.00,meteohub,2013-04-04 10:18:00,
2013-04-04 06:23:00,29.1,36.1,30.27,WNW,302,0.0,1.0,65,0.00,,,0.00,meteohub,2013-04-04 10:23:00,
2013-04-04 06:28:00,28.9,36.1,30.27,WNW,302,0.0,1.0,66,0.00,,,0.00,meteohub,2013-04-04 10:28:00,
2013-04-04 06:33:00,28.8,36.1,30.27,WNW,302,0.0,1.0,66,0.00,,,0.00,meteohub,2013-04-04 10:33:00,
2013-04-04 06:38:00,28.6,36.1,30.27,WNW,302,0.0,1.0,66,0.00,,,0.00,meteohub,2013-04-04 10:38:00,
2013-04-04 06:43:00,28.8,36.1,30.28,WNW,302,0.0,1.0,66,0.00,,,0.00,meteohub,2013-04-04 10:43:00,
2013-04-04 06:48:00,28.8,36.1,30.28,WNW,302,0.0,1.0,66,0.00,,,0.00,meteohub,2013-04-04 10:48:00,
2013-04-04 06:53:00,28.6,36.1,30.28,WNW,302,0.0,2.0,67,0.00,,,0.00,meteohub,2013-04-04 10:53:00,
2013-04-04 06:59:00,28.4,36.3,30.28,WNW,302,0.0,2.0,68,0.00,,,0.00,meteohub,2013-04-04 10:59:00,
2013-04-04 07:04:00,28.2,36.5,30.29,WNW,302,0.0,2.0,68,0.00,,,0.00,meteohub,2013-04-04 11:04:00,
2013-04-04 07:09:00,28.2,36.5,30.29,WNW,302,0.0,0.0,69,0.00,,,0.00,meteohub,2013-04-04 11:09:00,
2013-04-04 07:14:00,28.4,36.5,30.30,WNW,302,0.0,0.0,69,0.00,,,0.00,meteohub,2013-04-04 11:14:00,
2013-04-04 07:19:00,28.8,36.3,30.30,WNW,302,0.0,0.0,69,0.00,,,0.00,meteohub,2013-04-04 11:19:00,
2013-04-04 07:24:00,29.3,36.3,30.30,WNW,302,0.0,0.0,68,0.00,,,0.00,meteohub,2013-04-04 11:24:00,
2013-04-04 07:30:00,30.0,36.3,30.31,WNW,303,0.0,0.0,67,0.00,,,0.00,meteohub,2013-04-04 11:30:00,
2013-04-04 07:35:00,30.6,36.3,30.31,NW,318,0.0,4.0,65,0.00,,,0.00,meteohub,2013-04-04 11:35:00,
2013-04-04 07:40:00,30.9,36.3,30.31,East,95,3.0,4.0,65,0.00,,,0.00,meteohub,2013-04-04 11:40:00,
2013-04-04 07:45:00,31.3,36.3,30.31,WNW,297,1.0,7.0,64,0.00,,,0.00,meteohub,2013-04-04 11:45:00,
2013-04-04 07:50:00,31.6,36.3,30.30,North,0,4.0,4.0,63,0.00,,,0.00,meteohub,2013-04-04 11:50:00,
2013-04-04 07:55:00,32.0,36.3,30.30,NW,325,1.0,4.0,63,0.00,,,0.00,meteohub,2013-04-04 11:55:00,
2013-04-04 08:00:00,32.4,36.1,30.30,NNW,328,0.0,6.0,61,0.00,,,0.00,meteohub,2013-04-04 12:00:00,
2013-04-04 08:05:00,32.7,36.1,30.31,NW,311,1.0,4.0,60,0.00,,,0.00,meteohub,2013-04-04 12:05:00,
2013-04-04 08:10:00,33.1,36.3,30.31,WNW,295,0.0,5.0,60,0.00,,,0.00,meteohub,2013-04-04 12:10:00,
2013-04-04 08:15:00,33.4,36.3,30.31,WNW,295,0.0,5.0,60,0.00,,,0.00,meteohub,2013-04-04 12:15:00,
2013-04-04 08:20:00,34.2,36.3,30.31,NW,326,1.0,5.0,58,0.00,,,0.00,meteohub,2013-04-04 12:20:00,
2013-04-04 08:25:00,34.7,36.3,30.31,NW,326,0.0,4.0,57,0.00,,,0.00,meteohub,2013-04-04 12:25:00,
2013-04-04 08:30:00,35.4,36.1,30.31,NW,321,3.0,4.0,55,0.00,,,0.00,meteohub,2013-04-04 12:30:00,
2013-04-04 08:35:00,36.0,36.1,30.31,WNW,293,1.0,5.0,53,0.00,,,0.00,meteohub,2013-04-04 12:35:00,
2013-04-04 08:40:00,36.3,36.1,30.31,WNW,302,1.0,6.0,51,0.00,,,0.00,meteohub,2013-04-04 12:40:00,
2013-04-04 08:45:00,36.7,36.1,30.30,West,280,0.0,7.0,51,0.00,,,0.00,meteohub,2013-04-04 12:45:00,
2013-04-04 08:50:00,37.2,36.1,30.31,NNW,331,0.0,7.0,52,0.00,,,0.00,meteohub,2013-04-04 12:50:00,
2013-04-04 08:55:00,37.9,36.3,30.31,WNW,283,0.0,5.0,49,0.00,,,0.00,meteohub,2013-04-04 12:55:00,
2013-04-04 09:00:00,37.9,36.3,30.31,NW,306,1.0,6.0,48,0.00,,,0.00,meteohub,2013-04-04 13:00:00,
2013-04-04 09:05:00,38.1,36.3,30.31,NW,310,3.0,7.0,47,0.00,,,0.00,meteohub,2013-04-04 13:05:00,
2013-04-04 09:10:00,38.1,36.3,30.31,NNW,346,2.0,7.0,46,0.00,,,0.00,meteohub,2013-04-04 13:10:00,
2013-04-04 09:15:00,38.5,36.3,30.31,NNW,333,4.0,7.0,46,0.00,,,0.00,meteohub,2013-04-04 13:15:00,
2013-04-04 09:20:00,38.8,36.3,30.31,NNW,346,0.0,7.0,45,0.00,,,0.00,meteohub,2013-04-04 13:20:00,
2013-04-04 09:25:00,39.4,36.1,30.31,NW,325,1.0,7.0,45,0.00,,,0.00,meteohub,2013-04-04 13:25:00,
2013-04-04 09:30:00,39.6,36.1,30.30,WNW,301,4.0,7.0,46,0.00,,,0.00,meteohub,2013-04-04 13:30:00,
2013-04-04 09:35:00,39.7,36.1,30.30,NNW,341,6.0,7.0,43,0.00,,,0.00,meteohub,2013-04-04 13:35:00,
2013-04-04 09:40:00,39.7,36.3,30.29,NNW,332,0.0,7.0,44,0.00,,,0.00,meteohub,2013-04-04 13:40:00,
2013-04-04 09:45:00,40.3,37.2,30.29,NW,324,2.0,7.0,44,0.00,,,0.00,meteohub,2013-04-04 13:45:00,
2013-04-04 09:50:00,40.5,37.2,30.29,WNW,300,4.0,7.0,41,0.00,,,0.00,meteohub,2013-04-04 13:50:00,
2013-04-04 09:55:00,40.5,37.2,30.30,NW,320,4.0,8.0,41,0.00,,,0.00,meteohub,2013-04-04 13:55:00,
2013-04-04 10:00:00,40.6,36.3,30.29,West,281,2.0,8.0,41,0.00,,,0.00,meteohub,2013-04-04 14:00:00,
2013-04-04 10:06:00,40.8,36.3,30.30,NNW,333,4.0,9.0,40,0.00,,,0.00,meteohub,2013-04-04 14:06:00,
2013-04-04 10:11:00,40.8,36.3,30.29,SE,126,1.0,9.0,43,0.00,,,0.00,meteohub,2013-04-04 14:11:00,
2013-04-04 10:16:00,41.7,36.3,30.28,NW,325,0.0,7.0,40,0.00,,,0.00,meteohub,2013-04-04 14:16:00,
2013-04-04 10:21:00,42.1,36.3,30.28,WNW,284,0.0,7.0,39,0.00,,,0.00,meteohub,2013-04-04 14:21:00,
2013-04-04 10:27:00,42.4,36.3,30.28,West,261,1.0,7.0,38,0.00,,,0.00,meteohub,2013-04-04 14:27:00,
2013-04-04 10:32:00,42.6,36.3,30.28,NNW,340,4.0,8.0,37,0.00,,,0.00,meteohub,2013-04-04 14:32:00,
2013-04-04 10:37:00,42.4,36.5,30.28,NNW,345,0.0,8.0,35,0.00,,,0.00,meteohub,2013-04-04 14:37:00,
2013-04-04 10:42:00,42.6,37.6,30.28,NNW,330,5.0,8.0,36,0.00,,,0.00,meteohub,2013-04-04 14:42:00,
2013-04-04 10:47:00,43.0,37.6,30.28,East,91,1.0,8.0,35,0.00,,,0.00,meteohub,2013-04-04 14:47:00,
2013-04-04 10:52:00,43.3,37.6,30.27,WNW,303,4.0,8.0,34,0.00,,,0.00,meteohub,2013-04-04 14:52:00,
2013-04-04 10:57:00,43.2,37.6,30.27,NW,319,2.0,8.0,34,0.00,,,0.00,meteohub,2013-04-04 14:57:00,
2013-04-04 11:02:00,43.5,36.5,30.26,SE,126,0.0,8.0,35,0.00,,,0.00,meteohub,2013-04-04 15:02:00,
2013-04-04 11:07:00,43.9,36.5,30.26,NNW,348,2.0,8.0,33,0.00,,,0.00,meteohub,2013-04-04 15:07:00,
2013-04-04 11:12:00,44.1,36.5,30.26,NNW,331,1.0,5.0,33,0.00,,,0.00,meteohub,2013-04-04 15:12:00,
2013-04-04 11:17:00,44.6,36.5,30.26,WNW,298,5.0,11.0,36,0.00,,,0.00,meteohub,2013-04-04 15:17:00,
2013-04-04 11:22:00,45.3,36.5,30.25,NNW,335,5.0,11.0,35,0.00,,,0.00,meteohub,2013-04-04 15:22:00,
2013-04-04 11:28:00,45.5,36.5,30.25,West,277,2.0,10.0,34,0.00,,,0.00,meteohub,2013-04-04 15:28:00,
2013-04-04 11:33:00,46.0,36.5,30.25,NW,325,7.0,7.0,31,0.00,,,0.00,meteohub,2013-04-04 15:33:00,
2013-04-04 11:38:00,45.9,36.5,30.25,ENE,78,2.0,8.0,33,0.00,,,0.00,meteohub,2013-04-04 15:38:00,
2013-04-04 11:43:00,46.0,36.5,30.25,North,10,1.0,9.0,30,0.00,,,0.00,meteohub,2013-04-04 15:43:00,
2013-04-04 11:48:00,46.2,36.5,30.25,NW,310,0.0,9.0,31,0.00,,,0.00,meteohub,2013-04-04 15:48:00,
2013-04-04 11:53:00,46.9,36.5,30.25,NNW,348,4.0,7.0,32,0.00,,,0.00,meteohub,2013-04-04 15:53:00,
2013-04-04 11:58:00,47.1,36.5,30.24,ENE,63,1.0,8.0,32,0.00,,,0.00,meteohub,2013-04-04 15:58:00,
2013-04-04 12:03:00,47.8,36.3,30.24,NNE,21,5.0,8.0,32,0.00,,,0.00,meteohub,2013-04-04 16:03:00,
2013-04-04 12:08:00,48.4,36.5,30.24,West,276,4.0,8.0,31,0.00,,,0.00,meteohub,2013-04-04 16:08:00,
2013-04-04 12:13:00,48.4,36.5,30.24,NNW,333,3.0,7.0,30,0.00,,,0.00,meteohub,2013-04-04 16:13:00,
2013-04-04 12:18:00,48.0,36.5,30.24,North,349,1.0,7.0,29,0.00,,,0.00,meteohub,2013-04-04 16:18:00,
2013-04-04 12:23:00,48.4,36.5,30.24,NW,315,0.0,7.0,31,0.00,,,0.00,meteohub,2013-04-04 16:23:00,
2013-04-04 12:28:00,48.7,36.5,30.22,NNW,345,5.0,7.0,30,0.00,,,0.00,meteohub,2013-04-04 16:28:00,
2013-04-04 12:33:00,48.9,36.5,30.23,NNW,330,5.0,7.0,29,0.00,,,0.00,meteohub,2013-04-04 16:33:00,
2013-04-04 12:38:00,48.7,36.5,30.23,NNW,343,0.0,9.0,30,0.00,,,0.00,meteohub,2013-04-04 16:38:00,
2013-04-04 12:43:00,49.3,36.5,30.22,North,0,0.0,9.0,29,0.00,,,0.00,meteohub,2013-04-04 16:43:00,
2013-04-04 12:48:00,50.0,36.5,30.22,West,271,4.0,9.0,28,0.00,,,0.00,meteohub,2013-04-04 16:48:00,
2013-04-04 12:53:00,50.4,35.6,30.22,NNW,338,5.0,8.0,29,0.00,,,0.00,meteohub,2013-04-04 16:53:00,
2013-04-04 12:58:00,51.1,35.6,30.22,East,82,0.0,8.0,30,0.00,,,0.00,meteohub,2013-04-04 16:58:00,
2013-04-04 13:03:00,51.1,35.6,30.22,NW,325,5.0,8.0,27,0.00,,,0.00,meteohub,2013-04-04 17:03:00,
2013-04-04 13:08:00,50.5,35.8,30.21,NNE,26,0.0,11.0,27,0.00,,,0.00,meteohub,2013-04-04 17:08:00,
2013-04-04 13:13:00,51.3,35.8,30.21,ESE,106,4.0,11.0,31,0.00,,,0.00,meteohub,2013-04-04 17:13:00,
2013-04-04 13:18:00,51.8,35.8,30.21,East,87,2.0,11.0,31,0.00,,,0.00,meteohub,2013-04-04 17:18:00,
2013-04-04 13:23:00,51.6,36.0,30.21,NNW,342,8.0,8.0,30,0.00,,,0.00,meteohub,2013-04-04 17:23:00,
2013-04-04 13:28:00,51.6,36.0,30.20,ESE,112,1.0,8.0,31,0.00,,,0.00,meteohub,2013-04-04 17:28:00,
2013-04-04 13:33:00,52.0,36.0,30.20,NW,313,1.0,8.0,29,0.00,,,0.00,meteohub,2013-04-04 17:33:00,
2013-04-04 13:38:00,52.2,36.0,30.20,ENE,72,1.0,8.0,29,0.00,,,0.00,meteohub,2013-04-04 17:38:00,
2013-04-04 13:43:00,52.5,36.0,30.19,NE,56,0.0,8.0,29,0.00,,,0.00,meteohub,2013-04-04 17:43:00,
2013-04-04 13:49:00,52.5,36.0,30.19,West,267,6.0,8.0,28,0.00,,,0.00,meteohub,2013-04-04 17:49:00,
2013-04-04 13:54:00,52.5,36.1,30.19,NNE,26,6.0,9.0,27,0.00,,,0.00,meteohub,2013-04-04 17:54:00,
2013-04-04 13:59:00,52.5,36.1,30.18,WNW,284,2.0,9.0,28,0.00,,,0.00,meteohub,2013-04-04 17:59:00,
2013-04-04 14:04:00,52.9,36.3,30.18,East,97,1.0,10.0,28,0.00,,,0.00,meteohub,2013-04-04 18:04:00,
2013-04-04 14:09:00,52.9,36.3,30.18,WNW,296,5.0,10.0,30,0.00,,,0.00,meteohub,2013-04-04 18:09:00,
2013-04-04 14:14:00,53.4,36.3,30.18,West,263,4.0,10.0,29,0.00,,,0.00,meteohub,2013-04-04 18:14:00,
2013-04-04 14:19:00,53.2,36.3,30.18,NNW,336,1.0,9.0,26,0.00,,,0.00,meteohub,2013-04-04 18:19:00,
2013-04-04 14:24:00,52.9,36.3,30.17,NNW,344,7.0,10.0,27,0.00,,,0.00,meteohub,2013-04-04 18:24:00,
2013-04-04 14:29:00,52.9,36.5,30.17,NNW,346,7.0,10.0,26,0.00,,,0.00,meteohub,2013-04-04 18:29:00,
2013-04-04 14:34:00,53.1,36.5,30.17,NE,56,0.0,10.0,29,0.00,,,0.00,meteohub,2013-04-04 18:34:00,
2013-04-04 14:39:00,53.2,36.5,30.17,ESE,107,2.0,9.0,29,0.00,,,0.00,meteohub,2013-04-04 18:39:00,
2013-04-04 14:45:00,53.4,36.5,30.17,ENE,64,2.0,9.0,30,0.00,,,0.00,meteohub,2013-04-04 18:45:00,
2013-04-04 14:50:00,54.0,36.7,30.16,NNW,348,4.0,10.0,31,0.00,,,0.00,meteohub,2013-04-04 18:50:00,
2013-04-04 14:55:00,54.3,36.7,30.16,NW,304,5.0,10.0,30,0.00,,,0.00,meteohub,2013-04-04 18:55:00,
2013-04-04 15:00:00,54.5,36.7,30.16,West,265,0.0,6.0,29,0.00,,,0.00,meteohub,2013-04-04 19:00:00,
2013-04-04 15:05:00,54.3,36.7,30.16,ENE,67,1.0,6.0,30,0.00,,,0.00,meteohub,2013-04-04 19:05:00,
2013-04-04 15:10:00,54.3,36.9,30.15,East,80,4.0,6.0,30,0.00,,,0.00,meteohub,2013-04-04 19:10:00,
2013-04-04 15:15:00,54.5,36.9,30.15,NNW,346,1.0,6.0,30,0.00,,,0.00,meteohub,2013-04-04 19:15:00,
2013-04-04 15:20:00,54.9,36.9,30.14,NW,323,1.0,6.0,30,0.00,,,0.00,meteohub,2013-04-04 19:20:00,
2013-04-04 15:25:00,54.9,37.0,30.14,NNE,30,0.0,7.0,30,0.00,,,0.00,meteohub,2013-04-04 19:25:00,
2013-04-04 15:30:00,55.0,37.0,30.14,NNW,328,0.0,7.0,30,0.00,,,0.00,meteohub,2013-04-04 19:30:00,
2013-04-04 15:35:00,54.7,37.0,30.13,NNW,343,1.0,7.0,30,0.00,,,0.00,meteohub,2013-04-04 19:35:00,
2013-04-04 15:40:00,54.9,37.0,30.13,WNW,294,5.0,7.0,30,0.00,,,0.00,meteohub,2013-04-04 19:40:00,
2013-04-04 15:45:00,55.0,37.2,30.13,NW,323,5.0,8.0,29,0.00,,,0.00,meteohub,2013-04-04 19:45:00,
2013-04-04 15:50:00,55.2,37.2,30.12,WNW,283,2.0,8.0,29,0.00,,,0.00,meteohub,2013-04-04 19:50:00,
2013-04-04 15:55:00,55.0,37.4,30.12,West,274,1.0,8.0,30,0.00,,,0.00,meteohub,2013-04-04 19:55:00,
2013-04-04 16:00:00,54.9,37.4,30.12,ESE,115,0.0,7.0,29,0.00,,,0.00,meteohub,2013-04-04 20:00:00,
2013-04-04 16:05:00,54.7,37.6,30.12,ENE,72,0.0,7.0,30,0.00,,,0.00,meteohub,2013-04-04 20:05:00,
2013-04-04 16:10:00,54.7,37.6,30.11,East,95,0.0,7.0,30,0.00,,,0.00,meteohub,2013-04-04 20:10:00,
2013-04-04 16:15:00,54.7,37.6,30.11,SE,137,1.0,7.0,31,0.00,,,0.00,meteohub,2013-04-04 20:15:00,
2013-04-04 16:20:00,54.7,37.8,30.10,ENE,63,1.0,7.0,32,0.00,,,0.00,meteohub,2013-04-04 20:20:00,
2013-04-04 16:25:00,55.0,37.8,30.10,NNW,348,0.0,10.0,31,0.00,,,0.00,meteohub,2013-04-04 20:25:00,
2013-04-04 16:30:00,55.2,37.8,30.10,ENE,69,1.0,10.0,31,0.00,,,0.00,meteohub,2013-04-04 20:30:00,
2013-04-04 16:35:00,55.0,36.9,30.09,North,355,4.0,10.0,31,0.00,,,0.00,meteohub,2013-04-04 20:35:00,
2013-04-04 16:40:00,55.0,36.9,30.09,North,5,5.0,8.0,32,0.00,,,0.00,meteohub,2013-04-04 20:40:00,
2013-04-04 16:45:00,55.2,36.9,30.09,NNE,19,2.0,5.0,31,0.00,,,0.00,meteohub,2013-04-04 20:45:00,
2013-04-04 16:51:00,55.0,37.0,30.09,West,261,0.0,6.0,31,0.00,,,0.00,meteohub,2013-04-04 20:51:00,
2013-04-04 16:56:00,55.2,37.0,30.09,WSW,246,1.0,6.0,31,0.00,,,0.00,meteohub,2013-04-04 20:56:00,
2013-04-04 17:01:00,55.0,37.0,30.09,WNW,287,5.0,6.0,31,0.00,,,0.00,meteohub,2013-04-04 21:01:00,
2013-04-04 17:06:00,54.9,37.0,30.09,North,355,4.0,9.0,31,0.00,,,0.00,meteohub,2013-04-04 21:06:00,
2013-04-04 17:11:00,54.9,37.0,30.09,NNE,30,4.0,9.0,31,0.00,,,0.00,meteohub,2013-04-04 21:11:00,
2013-04-04 17:16:00,54.7,37.0,30.09,ENE,74,0.0,9.0,31,0.00,,,0.00,meteohub,2013-04-04 21:16:00,
2013-04-04 17:21:00,54.5,37.2,30.08,SW,234,0.0,7.0,31,0.00,,,0.00,meteohub,2013-04-04 21:21:00,
2013-04-04 17:26:00,54.5,37.2,30.08,West,263,0.0,7.0,31,0.00,,,0.00,meteohub,2013-04-04 21:26:00,
2013-04-04 17:31:00,54.7,37.2,30.08,West,275,0.0,7.0,32,0.00,,,0.00,meteohub,2013-04-04 21:31:00,
2013-04-04 17:36:00,54.5,37.2,30.08,NNE,28,1.0,7.0,31,0.00,,,0.00,meteohub,2013-04-04 21:36:00,
2013-04-04 17:42:00,54.1,36.1,30.08,East,86,1.0,10.0,30,0.00,,,0.00,meteohub,2013-04-04 21:42:00,
2013-04-04 17:47:00,54.0,36.1,30.09,East,91,2.0,11.0,30,0.00,,,0.00,meteohub,2013-04-04 21:47:00,
2013-04-04 17:52:00,53.8,37.2,30.08,West,262,2.0,11.0,31,0.00,,,0.00,meteohub,2013-04-04 21:52:00,
2013-04-04 17:57:00,53.8,36.1,30.08,NNW,331,0.0,11.0,31,0.00,,,0.00,meteohub,2013-04-04 21:57:00,
2013-04-04 18:02:00,53.6,36.1,30.08,North,5,0.0,9.0,30,0.00,,,0.00,meteohub,2013-04-04 22:02:00,
2013-04-04 18:07:00,53.4,37.2,30.08,NNW,337,0.0,8.0,30,0.00,,,0.00,meteohub,2013-04-04 22:07:00,
2013-04-04 18:12:00,53.2,37.2,30.07,NE,39,0.0,12.0,31,0.00,,,0.00,meteohub,2013-04-04 22:12:00,
2013-04-04 18:17:00,53.1,37.2,30.07,West,272,0.0,12.0,31,0.00,,,0.00,meteohub,2013-04-04 22:17:00,
2013-04-04 18:22:00,52.9,38.3,30.07,NNW,347,2.0,12.0,32,0.00,,,0.00,meteohub,2013-04-04 22:22:00,
2013-04-04 18:27:00,52.7,38.3,30.07,WNW,296,1.0,12.0,32,0.00,,,0.00,meteohub,2013-04-04 22:27:00,
2013-04-04 18:32:00,52.3,38.5,30.07,NW,305,0.0,12.0,33,0.00,,,0.00,meteohub,2013-04-04 22:32:00,
2013-04-04 18:37:00,52.2,38.5,30.07,West,265,0.0,12.0,32,0.00,,,0.00,meteohub,2013-04-04 22:37:00,
2013-04-04 18:42:00,52.0,38.5,30.06,East,80,0.0,9.0,33,0.00,,,0.00,meteohub,2013-04-04 22:42:00,
2013-04-04 18:47:00,51.6,38.5,30.06,West,281,0.0,9.0,34,0.00,,,0.00,meteohub,2013-04-04 22:47:00,
2013-04-04 18:52:00,51.4,38.5,30.06,WSW,246,0.0,6.0,35,0.00,,,0.00,meteohub,2013-04-04 22:52:00,
2013-04-04 18:57:00,51.1,38.5,30.06,NNW,340,0.0,6.0,35,0.00,,,0.00,meteohub,2013-04-04 22:57:00,
2013-04-04 19:02:00,50.7,38.5,30.07,NNE,15,0.0,5.0,36,0.00,,,0.00,meteohub,2013-04-04 23:02:00,
2013-04-04 19:07:00,50.5,38.5,30.07,WSW,244,4.0,5.0,37,0.00,,,0.00,meteohub,2013-04-04 23:07:00,
2013-04-04 19:12:00,50.4,38.5,30.07,NNW,337,0.0,5.0,37,0.00,,,0.00,meteohub,2013-04-04 23:12:00,
2013-04-04 19:17:00,50.2,38.5,30.07,WNW,293,4.0,6.0,37,0.00,,,0.00,meteohub,2013-04-04 23:17:00,
2013-04-04 19:22:00,49.8,38.5,30.07,WNW,295,0.0,6.0,37,0.00,,,0.00,meteohub,2013-04-04 23:22:00,
2013-04-04 19:27:00,49.6,38.5,30.07,WNW,299,1.0,5.0,36,0.00,,,0.00,meteohub,2013-04-04 23:27:00,
2013-04-04 19:32:00,49.6,38.5,30.07,WNW,300,0.0,12.0,37,0.00,,,0.00,meteohub,2013-04-04 23:32:00,
2013-04-04 19:37:00,49.5,38.5,30.07,NW,321,0.0,12.0,37,0.00,,,0.00,meteohub,2013-04-04 23:37:00,
2013-04-04 19:42:00,49.3,38.5,30.07,West,271,0.0,12.0,37,0.00,,,0.00,meteohub,2013-04-04 23:42:00,
2013-04-04 19:47:00,49.3,38.5,30.07,West,271,0.0,7.0,38,0.00,,,0.00,meteohub,2013-04-04 23:47:00,
2013-04-04 19:52:00,48.9,38.5,30.07,West,271,0.0,7.0,38,0.00,,,0.00,meteohub,2013-04-04 23:52:00,
2013-04-04 19:57:00,48.7,38.3,30.07,East,81,0.0,4.0,37,0.00,,,0.00,meteohub,2013-04-04 23:57:00,
2013-04-04 20:02:00,48.6,38.3,30.07,East,82,0.0,2.0,38,0.00,,,0.00,meteohub,2013-04-05 00:02:00,
2013-04-04 20:07:00,48.4,38.3,30.08,ENE,69,0.0,2.0,38,0.00,,,0.00,meteohub,2013-04-05 00:07:00,
2013-04-04 20:12:00,48.2,38.3,30.08,NE,34,0.0,5.0,39,0.00,,,0.00,meteohub,2013-04-05 00:12:00,
2013-04-04 20:17:00,48.0,38.3,30.09,NNW,341,1.0,5.0,39,0.00,,,0.00,meteohub,2013-04-05 00:17:00,
2013-04-04 20:22:00,47.7,38.3,30.08,East,90,0.0,5.0,40,0.00,,,0.00,meteohub,2013-04-05 00:22:00,
2013-04-04 20:27:00,47.5,38.3,30.08,East,101,1.0,5.0,40,0.00,,,0.00,meteohub,2013-04-05 00:27:00,
2013-04-04 20:32:00,47.1,38.3,30.09,NE,40,0.0,5.0,41,0.00,,,0.00,meteohub,2013-04-05 00:32:00,
2013-04-04 20:37:00,46.8,38.1,30.09,ENE,75,1.0,4.0,42,0.00,,,0.00,meteohub,2013-04-05 00:37:00,
2013-04-04 20:42:00,46.6,38.3,30.09,NE,47,0.0,5.0,43,0.00,,,0.00,meteohub,2013-04-05 00:42:00,
2013-04-04 20:47:00,46.2,38.3,30.09,ESE,123,0.0,5.0,43,0.00,,,0.00,meteohub,2013-04-05 00:47:00,
2013-04-04 20:52:00,46.0,38.3,30.09,North,355,0.0,5.0,44,0.00,,,0.00,meteohub,2013-04-05 00:52:00,
2013-04-04 20:58:00,45.9,38.3,30.09,ENE,68,2.0,8.0,45,0.00,,,0.00,meteohub,2013-04-05 00:58:00,
2013-04-04 21:03:00,45.7,38.3,30.10,ENE,67,1.0,8.0,45,0.00,,,0.00,meteohub,2013-04-05 01:03:00,
2013-04-04 21:08:00,45.3,38.3,30.09,ENE,77,0.0,8.0,46,0.00,,,0.00,meteohub,2013-04-05 01:08:00,
2013-04-04 21:13:00,45.1,38.3,30.09,West,261,6.0,6.0,46,0.00,,,0.00,meteohub,2013-04-05 01:13:00,
2013-04-04 21:18:00,45.0,38.3,30.09,ESE,103,2.0,6.0,47,0.00,,,0.00,meteohub,2013-04-05 01:18:00,
2013-04-04 21:23:00,44.8,38.1,30.09,SE,145,0.0,6.0,47,0.00,,,0.00,meteohub,2013-04-05 01:23:00,
2013-04-04 21:28:00,44.4,38.1,30.09,NE,44,1.0,6.0,48,0.00,,,0.00,meteohub,2013-04-05 01:28:00,
2013-04-04 21:33:00,44.2,37.9,30.09,East,88,1.0,5.0,49,0.00,,,0.00,meteohub,2013-04-05 01:33:00,
2013-04-04 21:38:00,44.1,37.9,30.09,East,82,0.0,5.0,49,0.00,,,0.00,meteohub,2013-04-05 01:38:00,
2013-04-04 21:43:00,43.9,37.9,30.09,East,80,0.0,2.0,49,0.00,,,0.00,meteohub,2013-04-05 01:43:00,
2013-04-04 21:48:00,43.7,37.8,30.08,ESE,109,2.0,5.0,49,0.00,,,0.00,meteohub,2013-04-05 01:48:00,
2013-04-04 21:53:00,43.5,37.8,30.08,NNW,348,0.0,6.0,49,0.00,,,0.00,meteohub,2013-04-05 01:53:00,
2013-04-04 21:58:00,43.3,37.6,30.07,ENE,66,0.0,6.0,49,0.00,,,0.00,meteohub,2013-04-05 01:58:00,
2013-04-04 22:03:00,43.2,37.4,30.07,ENE,74,1.0,6.0,49,0.00,,,0.00,meteohub,2013-04-05 02:03:00,
2013-04-04 22:08:00,43.0,37.4,30.07,East,83,0.0,5.0,50,0.00,,,0.00,meteohub,2013-04-05 02:08:00,
2013-04-04 22:13:00,43.0,37.2,30.07,NE,51,2.0,5.0,50,0.00,,,0.00,meteohub,2013-04-05 02:13:00,
2013-04-04 22:18:00,43.0,37.2,30.07,ENE,68,2.0,4.0,50,0.00,,,0.00,meteohub,2013-04-05 02:18:00,
2013-04-04 22:23:00,42.8,37.0,30.07,East,86,0.0,4.0,51,0.00,,,0.00,meteohub,2013-04-05 02:23:00,
2013-04-04 22:28:00,42.6,37.0,30.06,ENE,59,0.0,4.0,51,0.00,,,0.00,meteohub,2013-04-05 02:28:00,
2013-04-04 22:33:00,42.4,37.0,30.06,ESE,106,4.0,4.0,52,0.00,,,0.00,meteohub,2013-04-05 02:33:00,
2013-04-04 22:38:00,42.3,37.0,30.06,ESE,117,1.0,3.0,52,0.00,,,0.00,meteohub,2013-04-05 02:38:00,
2013-04-04 22:43:00,42.3,36.9,30.06,NNE,23,1.0,5.0,52,0.00,,,0.00,meteohub,2013-04-05 02:43:00,
2013-04-04 22:48:00,42.3,36.9,30.06,ENE,65,0.0,5.0,53,0.00,,,0.00,meteohub,2013-04-05 02:48:00,
2013-04-04 22:53:00,42.1,36.7,30.06,ESE,102,1.0,6.0,53,0.00,,,0.00,meteohub,2013-04-05 02:53:00,
2013-04-04 22:58:00,42.1,36.7,30.05,NE,38,0.0,6.0,54,0.00,,,0.00,meteohub,2013-04-05 02:58:00,
2013-04-04 23:03:00,41.9,36.5,30.05,NE,53,1.0,6.0,54,0.00,,,0.00,meteohub,2013-04-05 03:03:00,
2013-04-04 23:08:00,41.7,36.5,30.05,East,97,0.0,5.0,54,0.00,,,0.00,meteohub,2013-04-05 03:08:00,
2013-04-04 23:13:00,41.5,36.3,30.05,North,351,1.0,5.0,55,0.00,,,0.00,meteohub,2013-04-05 03:13:00,
2013-04-04 23:18:00,41.4,36.3,30.05,East,90,0.0,5.0,55,0.00,,,0.00,meteohub,2013-04-05 03:18:00,
2013-04-04 23:23:00,41.4,36.3,30.05,NW,304,0.0,4.0,56,0.00,,,0.00,meteohub,2013-04-05 03:23:00,
2013-04-04 23:28:00,41.2,36.1,30.05,NW,307,0.0,3.0,57,0.00,,,0.00,meteohub,2013-04-05 03:28:00,
2013-04-04 23:33:00,40.8,36.1,30.05,NW,313,0.0,3.0,57,0.00,,,0.00,meteohub,2013-04-05 03:33:00,
2013-04-04 23:38:00,40.6,36.0,30.05,NW,309,0.0,1.0,58,0.00,,,0.00,meteohub,2013-04-05 03:38:00,
2013-04-04 23:43:00,40.6,36.0,30.05,ESE,114,0.0,2.0,59,0.00,,,0.00,meteohub,2013-04-05 03:43:00,
2013-04-04 23:49:00,40.5,36.0,30.05,NE,35,0.0,4.0,60,0.00,,,0.00,meteohub,2013-04-05 03:49:00,
2013-04-04 23:54:00,40.3,36.0,30.05,WNW,300,0.0,4.0,60,0.00,,,0.00,meteohub,2013-04-05 03:54:00,
2013-04-04 23:59:00,40.3,36.0,30.05,ENE,77,0.0,6.0,61,0.00,,,0.00,meteohub,2013-04-05 03:59:00,